Simultaneous Nadir Overpasses (SNOs) Predictions

Prediction of SNOs between GOES-16 and TERRA Satellite Orbit:

Table of predicted SNOs for the next 14.0 days since TLE Epoch: 2/1/2025
Index Date Time (GOES-16) GOES-16 Lat,Lon TERRA Lat,Lon Distance(km) Time Diff (sec)
1 02/01/2025 14:42:53 0.00, -75.21 0.58, -77.95 312.05 80
2 02/03/2025 14:26:56 0.00, -75.24 -0.38, -73.47 201.71 80
3 02/04/2025 02:46:40 -0.00, -75.21 -0.66, -78.26 347.09 80
4 02/06/2025 02:25:22 -0.01, -75.25 0.28, -73.77 167.20 80
5 02/06/2025 14:44:57 0.01, -75.29 0.71, -78.54 369.61 80
6 02/08/2025 14:29:00 0.01, -75.33 -0.27, -74.06 145.42 80
7 02/09/2025 02:48:43 -0.02, -75.31 -0.74, -78.86 402.64 80
8 02/11/2025 02:27:23 -0.01, -75.36 0.17, -74.35 113.49 80
9 02/11/2025 14:46:59 0.02, -75.40 0.82, -79.12 423.09 80
10 02/13/2025 14:31:00 0.01, -75.46 -0.18, -74.64 94.63 80
11 02/14/2025 02:50:43 -0.02, -75.45 -0.86, -79.43 452.28 80
